EW6712 Weather Reports


Display with metric or nautical units.
time (UTC)temp
F
wind
direction
speed
MPH
gust
MPH
rain 1hr
in
rain 24hr
in
rain mn
in
humidity
%
barometer
mb
20260505210003 64 246 2.0 9.0 0.00 0.00 0.00 74 1015.9
20260505205402 62 247 2.0 4.0 0.00 0.00 0.00 76 1016.0
20260505204523 61 273 2.0 7.0 0.00 0.00 0.00 76 1016.1
20260505203603 60 230 2.0 6.0 0.00 0.00 0.00 77 1016.0
20260505202702 61 225 2.0 5.0 0.00 0.00 0.00 77 1016.0
20260505201802 60 253 2.0 7.0 0.00 0.00 0.00 77 1016.1
20260505200923 60 315 1.0 4.0 0.00 0.00 0.00 77 1016.2
20260505200002 60 211 2.0 4.0 0.00 0.00 0.00 77 1016.1
20260505195402 59 194 1.0 3.0 0.00 0.00 0.00 79 1016.1
20260505194502 59 187 2.0 4.0 0.00 0.00 0.00 80 1016.2
20260505193602 59 179 1.0 5.0 0.00 0.00 0.00 81 1016.3
20260505192702 59 200 2.0 5.0 0.00 0.00 0.00 80 1016.2
20260505191802 58 251 1.0 4.0 0.00 0.00 0.00 82 1016.4
20260505190923 58 258 1.0 4.0 0.00 0.00 0.00 84 1016.5
20260505190004 57 225 2.0 5.0 0.00 0.00 0.00 82 1016.3
20260505185402 57 223 1.0 5.0 0.00 0.00 0.00 83 1016.3
20260505184523 57 270 2.0 7.0 0.00 0.00 0.00 82 1016.3
20260505183602 56 269 2.0 6.0 0.00 0.00 0.00 84 1016.2
20260505182723 56 241 2.0 4.0 0.00 0.00 0.00 84 1016.2
20260505181803 56 229 2.0 4.0 0.00 0.00 0.00 84 1016.2
20260505180902 56 232 2.0 5.0 0.00 0.00 0.00 85 1016.0
20260505180002 56 290 1.0 3.0 0.00 0.00 0.00 87 1016.1
20260505175402 56 324 1.0 3.0 0.00 0.00 0.00 87 1016.1
20260505174502 56 326 1.0 3.0 0.00 0.00 0.00 87 1015.9
20260505173603 55 327 0.0 2.0 0.00 0.00 0.00 89 1016.0
20260505172723 55 317 1.0 3.0 0.00 0.00 0.00 88 1016.0
20260505171802 54 297 1.0 2.0 0.00 0.00 0.00 88 1016.0
20260505170902 54 298 0.0 3.0 0.00 0.00 0.00 89 1016.0
20260505170023 55 303 0.0 3.0 0.00 0.00 0.00 90 1016.0
20260505165402 54 304 0.0 2.0 0.00 0.00 0.00 90 1015.9
20260505164502 54 304 0.0 1.0 0.00 0.00 0.00 90 1015.9
20260505163623 53 304 0.0 2.0 0.00 0.00 0.00 91 1016.0
20260505162702 53 303 1.0 4.0 0.00 0.00 0.00 93 1016.1
20260505161802 52 19 0.0 3.0 0.00 0.00 0.00 94 1016.1
20260505160902 52 292 0.0 2.0 0.00 0.00 0.00 95 1016.1
20260505152702 51 230 0.0 1.0 0.00 0.00 0.00 96 1016.0
20260505151823 51 230 0.0 2.0 0.00 0.00 0.00 96 1015.9
20260505150924 51 299 1.0 3.0 0.00 0.00 0.00 96 1016.0
20260505124502 50 0 0.0 0.0 0.00 0.00 0.00 96 1015.2
20260505123623 51 342 0.0 1.0 0.00 0.00 0.00 96 1015.0
20260505122723 51 342 0.0 1.0 0.00 0.00 0.00 96 1015.0
20260505121802 51 342 0.0 1.0 0.00 0.00 0.00 96 1014.9
20260505120902 51 342 0.0 1.0 0.00 0.00 0.00 96 1014.9
20260505120002 51 342 0.0 1.0 0.00 0.00 0.00 95 1015.0
20260505115402 51 342 0.0 2.0 0.00 0.00 0.00 95 1014.9
20260505114502 51 342 0.0 2.0 0.00 0.00 0.00 95 1015.0
20260505113624 51 0 0.0 0.0 0.00 0.00 0.00 95 1015.0
20260505112702 51 0 0.0 0.0 0.00 0.00 0.00 95 1014.9
20260505111802 51 342 0.0 1.0 0.00 0.00 0.00 95 1015.0
20260505110902 51 342 0.0 1.0 0.00 0.00 0.00 95 1014.9
20260505101803 51 0 0.0 0.0 0.00 0.00 0.00 95 1014.7
20260505100902 51 0 0.0 0.0 0.00 0.00 0.00 95 1014.6
20260505100002 52 0 0.0 0.0 0.00 0.00 0.00 95 1014.6
20260505095402 52 0 0.0 0.0 0.00 0.00 0.00 95 1014.7
20260505094502 51 0 0.0 0.0 0.00 0.00 0.00 95 1014.7
20260505093604 51 0 0.0 0.0 0.00 0.00 0.00 95 1014.6
20260505092702 51 344 0.0 2.0 0.00 0.00 0.00 95 1014.8
20260505091802 52 0 0.0 0.0 0.00 0.00 0.00 95 1014.8
20260505090902 52 0 0.0 0.0 0.00 0.00 0.00 95 1014.7
20260505090002 52 0 0.0 0.0 0.00 0.00 0.00 95 1014.7
20260505085402 52 0 0.0 0.0 0.00 0.00 0.00 95 1014.6
20260505084502 52 0 0.0 0.0 0.00 0.00 0.00 95 1014.7
20260505083623 52 0 0.0 0.0 0.00 0.00 0.00 95 1014.7
20260505082703 52 344 0.0 1.0 0.00 0.00 0.00 95 1014.8
20260505081802 52 0 0.0 0.0 0.00 0.00 0.00 95 1014.7
20260505080902 52 0 0.0 0.0 0.00 0.00 0.00 94 1014.7
20260505080002 52 344 0.0 1.0 0.00 0.00 0.00 94 1014.9
20260505075402 52 344 0.0 1.0 0.00 0.00 0.00 94 1014.9
20260505074502 52 0 0.0 0.0 0.00 0.00 0.00 94 1014.9
20260505073603 52 330 0.0 3.0 0.00 0.00 0.00 94 1014.9
20260505072702 52 317 0.0 3.0 0.00 0.00 0.00 94 1015.0
20260505071802 52 260 0.0 2.0 0.00 0.00 0.00 93 1015.0
20260505070902 52 0 0.0 0.0 0.00 0.00 0.00 93 1015.0
20260505070002 52 260 0.0 1.0 0.00 0.00 0.00 92 1015.0
20260505065402 52 261 0.0 2.0 0.00 0.00 0.00 92 1015.0
20260505064503 53 295 0.0 2.0 0.00 0.00 0.00 91 1014.9
20260505063603 53 267 0.0 4.0 0.00 0.00 0.00 91 1014.8
20260505062702 53 300 0.0 2.0 0.00 0.00 0.00 90 1014.9
20260505061802 54 334 0.0 4.0 0.00 0.00 0.00 90 1014.8
20260505060902 54 316 0.0 2.0 0.00 0.00 0.00 89 1014.7
20260505060002 54 299 0.0 2.0 0.00 0.00 0.00 89 1014.7
20260505055402 54 309 0.0 2.0 0.00 0.00 0.00 89 1014.6
20260505054502 54 1 0.0 2.0 0.00 0.00 0.00 88 1014.6
20260505053623 54 37 0.0 2.0 0.00 0.00 0.00 88 1014.5
20260505052702 54 241 0.0 3.0 0.00 0.00 0.00 88 1014.4
20260505051802 54 258 1.0 4.0 0.00 0.00 0.00 88 1014.6
20260505050902 54 260 1.0 7.0 0.00 0.00 0.00 88 1014.5
20260505040902 55 267 0.0 2.0 0.00 0.00 0.00 86 1014.0
20260505040023 55 259 1.0 6.0 0.00 0.00 0.00 86 1013.9
20260505035402 55 241 1.0 4.0 0.00 0.00 0.00 86 1013.7
20260505034502 56 281 1.0 3.0 0.00 0.00 0.00 86 1013.8
20260505033602 56 318 1.0 3.0 0.00 0.00 0.00 86 1013.6
20260505032702 56 306 1.0 4.0 0.00 0.00 0.00 85 1013.5
20260505031802 56 300 1.0 2.0 0.00 0.00 0.00 84 1013.4
20260505030923 57 302 1.0 4.0 0.00 0.00 0.00 84 1013.3
20260505030002 57 272 1.0 3.0 0.00 0.00 0.00 84 1013.2
20260505025402 57 271 0.0 2.0 0.00 0.00 0.00 84 1013.2
20260505024502 57 282 1.0 3.0 0.00 0.00 0.00 84 1013.2
20260505023602 57 291 1.0 4.0 0.00 0.00 0.00 84 1013.1
20260505022702 58 297 2.0 5.0 0.00 0.00 0.00 83 1013.0
20260505021802 58 258 1.0 6.0 0.00 0.00 0.00 83 1012.9
20260505020923 58 252 2.0 7.0 0.00 0.00 0.00 82 1012.9
20260505020023 58 263 2.0 6.0 0.00 0.00 0.00 82 1012.9
20260505015402 59 264 2.0 8.0 0.00 0.00 0.00 81 1012.8
20260505014502 59 210 1.0 4.0 0.00 0.00 0.00 80 1013.0
20260505013602 60 209 1.0 4.0 0.00 0.00 0.00 80 1012.9
20260505012702 60 234 2.0 7.0 0.00 0.00 0.00 79 1013.0
20260505011802 60 223 2.0 7.0 0.00 0.00 0.00 79 1012.8
20260505010923 61 225 1.0 7.0 0.00 0.00 0.00 77 1012.8
20260505010002 61 245 2.0 7.0 0.00 0.00 0.00 77 1012.8
20260505005402 61 274 3.0 8.0 0.00 0.00 0.00 75 1012.9
20260505004502 63 282 2.0 8.0 0.00 0.00 0.00 73 1012.8
20260505003602 63 253 3.0 9.0 0.00 0.00 0.00 75 1012.8
20260505002702 62 241 3.0 7.0 0.00 0.00 0.00 74 1012.8
20260505001802 62 253 2.0 8.0 0.00 0.00 0.00 74 1012.7
20260505000902 62 248 3.0 10.0 0.00 0.00 0.00 75 1012.8
20260505000002 62 225 3.0 10.0 0.00 0.00 0.00 74 1012.9
20260504235403 63 217 2.0 5.0 0.00 0.00 0.00 74 1012.7
20260504234502 62 226 3.0 8.0 0.00 0.00 0.00 74 1012.9
20260504233623 63 250 2.0 8.0 0.00 0.00 0.00 73 1012.8
20260504232702 63 255 2.0 6.0 0.00 0.00 0.00 73 1012.9
20260504231823 63 268 2.0 7.0 0.00 0.00 0.00 73 1013.0
20260504230923 64 248 3.0 9.0 0.00 0.00 0.00 74 1013.0
20260504230002 64 245 3.0 11.0 0.00 0.00 0.00 71 1013.0
20260504225402 65 236 2.0 7.0 0.00 0.00 0.00 72 1013.1
20260504224502 64 215 2.0 12.0 0.00 0.00 0.00 73 1013.2
20260504223602 64 256 2.0 6.0 0.00 0.00 0.00 71 1013.3
20260504222723 66 265 2.0 6.0 0.00 0.00 0.00 69 1013.4
20260504221823 65 249 3.0 9.0 0.00 0.00 0.00 69 1013.4
20260504220902 64 232 3.0 7.0 0.00 0.00 0.00 71 1013.6
20260504220003 64 213 3.0 7.0 0.00 0.00 0.00 70 1013.6
20260504215402 64 221 3.0 9.0 0.00 0.00 0.00 70 1013.7
20260504214524 64 246 2.0 5.0 0.00 0.00 0.00 72 1013.7
20260504213602 63 228 2.0 8.0 0.00 0.00 0.00 72 1013.8
20260504212703 63 238 3.0 12.0 0.00 0.00 0.00 73 1013.8
20260504211823 62 218 3.0 7.0 0.00 0.00 0.00 73 1013.8
20260504210903 63 203 2.0 7.0 0.00 0.00 0.00 74 1013.8